Location: Asbacherhof
(48.8543°N, 10.7903°E)
Time: 17:19:30
(UTC+00:00)

USA 306 - Pass Details

Date: 26 May 2022
Orbit: 545 x 556 km, 54.0° (Epoch: 20 June)

Event Time Altitude Azimuth Distance (km) Brightness Sun altitude
Exits shadow 00:06:55 43° 156° (SSE) 782 3.2 -19.1°
Maximum altitude 00:07:14 44° 142° (SE) 771 3.2 -19.0°
Drops below altitude 10° 00:11:14 10° 70° (ENE) 1,846 5.9 -18.9°
Sets 00:13:33 0° 64° (ENE) 2,747 7.0 -18.8°
